Location: Utrecht
(52.0907°N, 5.1214°E)
Time: 16:31:16
(UTC+02:00)

ESTCUBE 1 - Pass Details

Date: 30 June 2022
Orbit: 645 x 657 km, 97.9° (Epoch: 18 August)

Event Time Altitude Azimuth Distance (km) Brightness Sun altitude
Exits shadow 23:07:22 - 146° (SE) 2,099 ? -7.4°
Reaches altitude 10° 23:07:31 10° 146° (SE) 2,044 ? -7.4°
Maximum altitude 23:11:50 53° 70° (ENE) 799 ? -7.8°
Drops below altitude 10° 23:16:13 10° 354° (N) 2,064 ? -8.2°
Sets 23:18:29 0° 349° (N) 2,982 ? -8.4°
